Location: Babice
(50.3480°N, 22.9363°E)
Time: 12:38:57
(UTC+00:00)

Cosmos 1674 Rocket - Pass Details

Date: 14 July 2020
Orbit: 602 x 631 km, 82.5° (Epoch: 08 August)

Event Time Altitude Azimuth Distance (km) Brightness Sun altitude
Rises 01:03:02 0° 349° (N) 2,891 7.7 -10.9°
Reaches altitude 10° 01:05:17 10° 349° (N) 1,977 6.8 -10.7°
Maximum altitude 01:09:39 87° 266° (W) 615 3.5 -10.3°
Drops below altitude 10° 01:13:58 10° 173° (S) 1,947 5.7 -9.8°
Enters shadow 01:15:14 - 173° (S) 2,464 6.2 -9.7°
